Back to catalog

COSMOS 970 DEB

AliveLEO
NORAD 10877·DEBRIS·🇷🇺 Russia

Launched Dec 21, 1977 from Baikonur Cosmodrome

Loading…

Next Passes (next 24 hours)

TLE

FreshSource: Space-Track

Epoch: Sep 14, 2026, 11:46 UTC

1 10877U 77121Y   26257.49045198  .00000171  00000-0  23766-3 0  9999
2 10877  65.7697 336.4921 0151998 261.6683  96.7122 13.76332592440813

Track COSMOS 970 DEB in real time with AllMySat

Download on the App Store